Regional Weather Roundup
Issued by NWS Burlington, VT

Home | Current Version | Previous Version | Text Only | Print | Product List | Glossary On
Versions: 1 2 3 4 5 6 7 8 9 10 11 12 13 14 15 16 17 18 19 20 21 22 23 24 25 26 27 28 29 30 31 32 33 34 35 36 37 38 39 40 41 42 43 44 45 46 47 48 49 50
000
ASUS41 KBTV 232330
RWRBTV
VERMONT REGIONAL WEATHER ROUNDUP
NATIONAL WEATHER SERVICE BURLINGTON VT
700 PM EDT SUN JUL 23 2017

NOTE: "FAIR" INDICATES FEW OR NO CLOUDS BELOW 12,000 FEET WITH NO
SIGNIFICANT WEATHER AND/OR OBSTRUCTIONS TO VISIBILITY.

* THESE REPORTS ARE NOT UNDER NWS QUALITY CONTROL AND/OR DO NOT
  REPORT WEATHER SUCH AS PRECIPITATION AND FOG.

VTZ001>019-240000-
_____VERMONT_____


CITY           SKY/WX    TMP DP  RH WIND       PRES   REMARKS
BURLINGTON     PTSUNNY   75  52  44 N10       29.87R
MONTPELIER     PTSUNNY   72  57  59 CALM      29.92R
MORRISVILLE    SUNNY     73  50  44 N7        29.89R
ST. JOHNSBURY*   N/A     74  54  49 MISG      29.86R
LYNDONVILLE*   FAIR      70  50  49 NW5       29.92R
MIDDLEBURY*    PTSUNNY   69  59  69 N3        29.87R
RUTLAND*       PTSUNNY   74  60  61 N3        29.86S
SPRINGFIELD    MOSUNNY   73  58  59 CALM      29.87S
HIGHGATE*      FAIR      71  50  48 N5        29.89S
NEWPORT*       FAIR      69  50  50 N6        29.92R
BENNINGTON     CLOUDY    74  61  63 SE3       29.85F
SUTTON*          N/A     70 N/A N/A MISG        N/A
ISLAND POND*     N/A     72 N/A N/A N3          N/A
GALLUP MILLS*    N/A     66 N/A N/A MISG        N/A
UNION VILLAGE*   N/A     72 N/A N/A MISG        N/A
MT. MANSFIELD*   N/A     61 N/A N/A CALM        N/A

_____LAKE CHAMPLAIN_____


CITY           SKY/WX    TMP DP  RH WIND       PRES   REMARKS
BURTON ISLAND*   N/A     73  52  46 NE1         N/A
COLCHESTER RF*   N/A     73  54  49 N12         N/A
DIAMOND ISL*     N/A     72  54  53 N16         N/A

$$

NYZ007-026>031-035-052-083-087-240000-
_____NORTHERN NEW YORK_____


CITY           SKY/WX    TMP DP  RH WIND       PRES   REMARKS
PLATTSBURGH    SUNNY     72  51  47 NE8       29.87S
SARANAC LAKE   PTSUNNY   68  55  63 NE12      29.88R
MASSENA        CLOUDY    71  51  49 NE12      29.86F
OGDENSBURG*    FAIR      71  53  53 NE7       29.85S
POTSDAM*       PTSUNNY   66  61  82 NE7       29.86S
STARK FALLS*     N/A     68 N/A N/A N2          N/A
WATERTOWN      CLOUDY    73  61  65 NE15      29.79S
FT DRUM        PTSUNNY   73  60  64 NE13      29.80F
ALBANY         CLOUDY    76  64  66 NE5       29.82S
GLENS FALLS    PTSUNNY   74  59  59 NE8       29.83S

$$
NHZ002-005-011-240000-
_____NEW HAMPSHIRE_____


CITY           SKY/WX    TMP DP  RH WIND       PRES   REMARKS
LEBANON        MOSUNNY   75  63  66 SE3       29.85F
KEENE          CLOUDY    75  59  57 S7        29.88R
MT WASHINGTON  MOSUNNY   50  45  81 W13         N/A
PLYMOUTH       FAIR      73  58  57 CALM      29.87R
WHITEFIELD     PTSUNNY   73  56  54 CALM      29.89R

$$

_____REGIONAL QUEBEC LOCATIONS_____


CITY           SKY/WX    TMP DP  RH WIND       PRES   REMARKS
MONTREAL       PTSUNNY   73  46  38 E12       29.87R
QUEBEC CITY    MOSUNNY   72  50  46 SW7       29.87S
SHERBROOKE     SUNNY     70  46  43 N5        29.91R

_____REGIONAL ONTARIO LOCATIONS_____


CITY           SKY/WX    TMP DP  RH WIND       PRES   REMARKS
OTTAWA         LGT RAIN  68  57  68 NE3       29.87S

______KEY______
VSB  - VISIBILITY IN MILES
WCI  - WIND CHILL INDEX
HX   - HEAT INDEX
$$
NNNN




USA.gov is the U.S. government's official web portal to all federal, state and local government web resources and services.